カタログに戻る

STARLINK-30586

運用中通信VLEO
NORAD 58084·PAYLOAD·🇺🇸 United States

打ち上げ Oct 18, 2023 から Cape Canaveral Space Force Station

Loading…

次のパス (今後24時間)

TLE

最新Source: CelesTrak SupGP

元期: Sep 15, 2026, 02:02 UTC

1 58084C 23160K   26258.08520833  .00024240  00000+0  87788-3 0  2589
2 58084  42.9996  91.7000 0001473 272.8946   1.2756 15.27570142    12

AllMySatでSTARLINK-30586をリアルタイム追跡

Download on the App Store